Current weather by "City, St" or "zip code"  
 

Current Conditions: Fort Benning, GA

Fair


83.0 F

Last Updated on Oct 29 2020, 4:56 pm EDT
Humidity: 37%
Wind Speed: SW 13.8 mph
Barometer 29.64 in
Dewpoint: 54.5 F
Visibility: 10.00 mi
Precip: --
Heat Index: 82 F
Wind Chill: NA
Current conditions at:

Fort Benning, GA (KLSF)

Lat: 32.33333 Lon: 84.83333

Local Radar Image active severe weather and emergency alerts image image weather storm and storm spotter reports image weather observation monitoring service image
Local
Radar
Active
Alerts
Storm Reports Obs
Monitoring

Sign-up For Email & Text Message Weather Alert Notification Services



Advertise Here

Observation History for Fort Benning, GA


Time Wind
(mph)
Vis
(mi)
Weather Precip (in) Temperature (F) Relative
Humidity
Wind
Chill
(F)
Heat
Index
(F)
Pressure
Air Dwpt altimeter
(in)
sea level
(mb)
Rmks
4:56 pm EDT SW 13.8 10.00 Fair -- 83.0 54.5 37% NA 82 29.64 1004.0
3:56 pm EDT SW 16.1 G 25.3 10.00 Fair -- 84.0 68.2 59% NA 87 29.64 1004.0
2:56 pm EDT SW 17.3 G 26.5 10.00 Partly Cloudy -- 84.0 67.5 57% NA 87 29.65 1004.3
1:56 pm EDT SW 11.5 G 24.2 10.00 A Few Clouds -- 84.0 70.5 65% NA 89 29.68 1005.3
12:56 pm EDT SW 11.5 G 20.7 10.00 Mostly Cloudy -- 80.0 70.9 73% NA 83 29.73 1007.0
11:56 am EDT SW 16.1 G 20.7 10.00 Mostly Cloudy Trace 79.0 71.6 78% NA NA 29.75 1007.7
10:56 am EDT S 11.5 10.00 Overcast -- 79.0 72.3 81% NA NA 29.75 1007.7
9:56 am EDT S 6.9 10.00 Mostly Cloudy -- 77.0 71.2 82% NA NA 29.77 1008.4
8:56 am EDT S 6.9 10.00 Mostly Cloudy -- 76.0 70.7 83% NA NA 29.76 1008.1
7:56 am EDT SW 9.2 10.00 Overcast -- 76.0 71.2 84% NA NA 29.74 1007.4
6:56 am EDT SW 8.1 10.00 Overcast -- 77.0 72.3 86% NA NA 29.71 1006.4
4:56 am EDT S 15.0 G 24.2 10.00 Mostly Cloudy 00.09 76.0 73.2 90% NA NA 29.67 1005.0
3:56 am EDT S 21.9 G 38.0 5.00 Heavy Rain Fog/Mist and Breezy -- 76.0 72.1 89% NA NA 29.66 1004.7
1:56 am EDT SE 26.5 G 34.5 10.00 Overcast and Windy -- 79.0 68.0 70% NA NA 29.68 1005.3
12:56 am EDT SE 17.3 G 25.3 10.00 Overcast -- 78.0 69.6 75% NA NA 29.74 1007.4
11:56 pm EDT SE 12.7 10.00 Overcast -- 77.0 69.1 76% NA NA 29.79 1009.1
10:56 pm EDT SE 11.5 10.00 A Few Clouds -- 77.0 68.5 75% NA NA 29.83 1010.4
9:56 pm EDT SE 10.4 10.00 Partly Cloudy -- 77.0 69.4 78% NA NA 29.86 1011.5
8:56 pm EDT SE 4.6 10.00 Overcast -- 75.0 71.2 87% NA NA 29.87 1011.8
7:56 pm EDT SE 4.6 10.00 Partly Cloudy Trace 76.0 72.1 89% NA NA 29.87 1011.8
6:56 pm EDT N 0.0 9.00 A Few Clouds -- 76.0 72.9 91% NA NA 29.87 1011.8

Regional Weather Observation


Fort Benning, GA (KLSF)

Fair
83.0 F

Auburn-Opelika Airport, AL (KAUO)

A Few Clouds
77.0 F

Butler Municipal Airport, GA (K6A1)

Thunderstorm in Vicinity
83.0 F

Thomaston, Thomaston-Upson County Airport, GA (KOPN)

Partly Cloudy
82.0 F

Americus Souther Field Airport, GA (KACJ)

Thunderstorm in Vicinity
86.0 F

Alexander City, Thomas C Russell Field Airport, AL (KALX)

Fair
74.0 F